SCP
0 0 0 0 0 0 0 0 0 0 0 0 0 0 0 0 0 0 0 0 0 0 0 0 0 0 0 0 0 0 0 0 0 0 0 0 0 0 0 0 0 0 0 0 0
0 0 0 0 0 0 0 0 0 0 0 0 0 0 0 0 0 0 0 0 0 0 0 0 0 0 0 0 0 0 0 0 0 0 0 0 0 -0 0 0 0 0 0 0 0
0 0 0 0 0 0 0 0 0 0 0 0 0 0 0 -0 0 0 0 0 0 0 0 0 0 0 0 0 0 0 0 0 0 0 0 0 0 0 0 -0 0 0 0 0 0
0 0 0 0 0 0 0 0 0 0 0 0 0 0 0 -0 0 0 0 0 0 0 0 0 0 0 0 0 0 0 0 0 0 0 0 0 0 0 0 0 0 0 0 0 0
0 0 0 0 0 0 0 0 0 0 0 0 0 0 0 0 0 0 0 0 0 0 0 0 0 0 0 0 0 0 0 0 0 0 0 0 0 0 0 0 0 0 0 0 0
0 0 0 0 0 0 0 0 0 0 0 0 0 0 0 0 0 0 0 0 0 0 0 0 0 0 0 0 0 0 0 0 0 0 0 0 0 0 0 0 0 0 0 0 0
0 0 0 0 0 0 0 0 0 0 0 0 0 0 0 0 0 0 0 0 0 0 0 0 0 0 0 0 0 0 0 0 0 0 0 0 0 0 0 0 0 0 0 0 0
-0 -0 0 0 0 0 0 0 0 0 0 0 0 0 0 0 0 0 0 0 0 0 0 0 0 0 0 0 0 0 0 0 0 0 0 0 0 0 0 0 0 0 0 0 0
-0 -0 -0 0 0 0 0 0 0 0 0 0 0 0 0 0 0 0 0 0 0 0 0 0 0 0 0 0 0 0 0 0 0 0 0 0 0 0 0 0 0 0 0 0 0
-0 -0 -0 -0 -0 -0 0 0 -0 0 0 0 0 0 0 0 0 0 0 0 0 0 0 0 0 0 0 0 0 0 0 0 0 0 0 0 0 0 0 0 0 0 0 0 0
-0 -0 -0 -0 -0 -0 0 0 0 0 0 0 0 0 0 0 0 0 0 0 0 0 0 0 0 0 0 0 0 0 0 0 0 0 0 0 0 0 0 0 0 0 0 0 0
0 0 -0 0 0 0 0 0 0 0 0 0 0 0 0 0 0 0 0 0 0 0 0 0 0 0 0 0 0 0 0 0 0 0 0 0 0 0 0 0 0 0 0 0 0
0 0 0 0 0 0 0 0 0 0 0 0 0 0 0 0 0 0 0 0 0 0 0 0 0 0 0 0 0 0 0 0 0 0 0 0 0 0 0 0 0 0 0 0 0
0 0 0 0 0 0 0 0 0 0 0 0 0 0 0 0 0 0 0 0 0 0 0 0 0 0 0 0 0 0 0 0 0 0 0 0 0 0 0 0 0 0 0 0 0
0 0 0 0 0 0 0 0 0 0 0 0 0 0 0 0 0 0 0 0 0 0 0 0 0 0 0 0 0 0 0 0 0 0 0 0 0 0 0 0 0 0 0 0 0
0 0 0 0 0 0 0 0 0 0 0 0 0 0 0 0 0 0 0 0 0 0 0 0 0 0 0 0 0 0 0 0 0 0 0 0 0 0 0 0 0 0 0 0 0
0 0 0 0 0 0 0 0 0 0 0 0 0 0 0 0 0 0 0 0 0 0 0 0 0 0 0 0 0 0 0 0 0 0 0 0 0 0 0 0 0 0 0 0 0
0 0 0 0 0 0 0 0 0 0 0 0 0 0 0 0 0 0 0 0 0 0 0 0 0 0 0 0 0 0 0 0 0 0 0 0 0 0 0 0 0 0 0 0 0
0 0 0 0 0 0 0 0 0 0 0 0 0 0 0 0 0 0 0 0 0 0 0 0 0 0 0 0 0 0 0 0 0 0 0 0 0 0 0 0 0 0 0 0 0
0 0 0 0 0 0 0 0 0 0 0 0 0 0 0 0 0 0 0 0 0 0 0 0 0 0 0 0 0 0 0 0 0 0 0 0 0 0 0 0 0 0 0 0 0
0 0 0 0 0 0 0 0 0 0 0 0 0 0 0 0 0 0 0 0 0 0 0 0 0 0 0 0 0 0 0 0 0 0 0 0 0 0 0 0 0 0 0 0 0
0 0 0 0 0 0 0 0 0 0 0 0 0 0 0 0 0 0 0 0 0 0 0 0 0 0 0 0 0 0 0 0 0 0 0 0 0 0 0 0 0 0 0 0 0
0 0 0 0 0 0 0 0 0 0 0 0 0 0 0 0 0 0 0 0 0 0 0 0 0 0 0 0 0 0 0 0 0 0 0 0 0 0 0 0 0 0 0 0 0
0 0 0 0 0 0 0 0 0 0 0 0 0 0 0 0 0 0 0 0 0 0 0 0 0 0 0 0 0 0 0 0 0 0 0 0 0 0 0 0 0 0 0 0 0
0 0 0 0 0 0 0 0 0 0 0 0 0 0 0 0 0 0 0 0 0 0 0 0 0 0 0 0 0 0 0 0 0 0 0 0 0 0 0 0 0 0 0 0 0
0 0 0 0 0 0 0 0 0 0 0 0 0 0 0 0 0 0 0 0 0 0 0 0 0 0 0 0 0 0 0 0 0 0 0 0 0 0 0 0 0 0 0 0 0
0 0 0 0 0 0 0 0 0 0 0 0 0 0 0 0 0 0 0 0 0 0 0 0 0 0 0 0 0 0 0 0 0 0 0 0 0 0 0 0 0 0 0 0 0
Wind_Speed_500mb
12 14 15 15 12 12 12 11 11 13 13 14 12 10 7 8 14 22 17 26 26 20 13 6 2 5 9 13 11 8 5 6 8 7 7 15 14 5 21 12 33 11 20 20 10
14 16 18 18 17 13 11 9 9 10 11 12 13 11 6 4 7 26 25 21 15 15 9 8 13 15 7 6 7 7 5 14 1 2 4 12 10 23 16 27 17 34 21 27 33
16 19 21 20 19 17 15 12 10 11 12 14 15 12 8 5 4 18 22 21 13 14 10 7 7 8 5 5 2 7 10 5 6 11 7 10 11 16 9 14 6 37 61 51 49
14 17 18 18 16 14 14 13 11 10 10 12 13 7 6 9 3 14 18 18 14 15 11 6 3 4 6 3 3 5 3 4 6 9 12 8 17 17 24 20 39 51 49 50 37
12 15 16 16 15 14 12 11 9 9 10 11 11 6 4 5 6 10 14 12 12 11 21 13 18 9 6 7 10 4 8 18 21 38 23 14 16 15 43 36 19 27 32 36 43
14 16 18 19 19 17 13 10 8 8 10 9 5 2 2 1 5 11 12 8 12 15 20 19 12 8 4 3 2 10 19 33 21 15 17 12 13 9 18 22 22 22 30 40 50
16 18 22 23 22 18 15 13 10 9 8 5 5 2 4 4 6 13 15 9 13 16 16 14 8 6 5 4 8 12 11 15 6 6 4 15 15 13 14 20 49 53 66 72 62
16 17 20 23 23 22 17 13 12 12 6 5 1 1 3 4 5 10 13 11 11 12 17 12 8 5 4 8 5 10 5 9 6 19 4 13 14 21 29 46 57 67 71 73 67
18 17 20 22 22 19 18 16 13 8 4 2 3 0 1 2 8 11 16 13 9 10 12 11 7 9 6 5 8 11 5 6 18 6 10 10 17 25 54 59 59 61 64 62 59
19 19 19 19 18 16 15 13 8 1 1 4 4 1 3 4 10 8 13 10 8 10 7 8 5 6 8 8 2 6 9 9 12 11 11 23 36 33 56 48 54 63 61 55 53
19 20 18 18 17 15 13 8 1 3 3 5 4 4 7 10 4 6 14 5 8 6 6 3 8 5 8 4 6 4 7 13 12 12 15 15 24 42 61 39 39 51 46 51 53
21 22 21 18 15 12 11 6 5 6 5 7 4 5 4 5 4 7 12 5 6 2 7 9 3 7 4 1 3 5 9 13 15 4 13 25 43 40 22 18 26 42 50 50 49
25 23 23 21 16 10 7 5 8 12 6 4 6 6 4 2 3 5 11 4 4 4 2 8 3 8 3 5 7 6 8 7 15 11 9 24 16 12 7 12 33 44 40 32 25
32 26 23 20 16 8 4 5 8 10 8 5 4 2 5 3 4 3 4 4 2 2 2 5 2 4 3 4 7 7 7 8 14 13 4 13 12 14 9 17 17 35 30 32 11
40 31 26 21 13 9 6 4 6 8 8 3 5 5 5 5 2 3 3 4 7 4 7 3 7 5 2 9 9 13 6 13 9 6 7 11 4 17 8 15 19 19 36 18 17
46 38 33 29 24 16 9 3 4 11 12 1 2 2 5 3 3 2 1 3 6 5 1 8 2 7 9 2 5 8 10 7 6 5 6 8 8 13 7 14 9 15 30 27 31
52 47 39 33 20 21 13 4 9 8 7 8 7 6 3 5 2 3 3 3 7 6 6 7 5 3 5 3 5 7 9 8 11 9 10 3 5 25 25 20 18 29 53 40 40
27 47 37 33 27 21 20 7 8 6 13 0 4 4 7 8 3 2 3 6 7 6 5 5 11 12 8 9 7 4 8 9 11 6 11 5 15 14 18 29 48 54 38 39 51
30 40 40 40 28 28 17 3 16 16 12 17 7 4 6 6 7 3 11 8 11 13 13 7 10 3 7 6 13 6 6 5 7 1 5 7 14 24 27 12 18 39 47 62 75
40 50 37 40 36 33 4 13 11 5 12 8 18 10 13 8 5 6 9 8 10 10 6 7 6 2 2 5 5 8 9 5 6 4 12 12 13 28 22 19 17 25 43 61 78
43 24 25 39 45 26 7 12 12 14 15 14 16 10 11 14 14 9 10 4 8 8 10 8 6 6 3 14 16 6 5 4 6 9 9 9 26 18 17 13 30 26 55 79 86
40 7 35 55 12 11 7 13 5 8 14 4 7 7 17 17 14 8 16 11 22 28 15 10 7 7 21 3 1 7 14 12 9 12 8 5 31 7 26 17 30 64 72 83 87
18 9 54 67 10 11 8 9 14 7 7 6 10 11 8 16 4 14 9 3 24 18 16 14 3 6 15 9 5 10 10 11 5 5 18 7 24 7 18 53 71 63 76 83 84
20 6 10 35 24 10 13 11 11 22 13 9 6 7 5 9 5 9 7 7 16 14 14 18 8 13 13 8 6 9 11 12 14 6 12 39 64 72 58 48 55 73 81 74 83
33 12 21 10 18 11 14 15 14 19 29 30 8 23 19 11 7 10 5 6 1 13 14 11 12 5 16 18 12 29 32 33 33 45 21 70 34 62 56 51 60 75 70 74 74
18 15 17 12 11 36 24 22 28 9 20 14 25 21 20 27 18 14 15 10 12 9 14 9 6 4 9 12 13 32 43 40 48 45 37 52 64 57 78 68 50 65 56 59 81
42 50 18 21 11 24 28 43 25 24 33 36 40 18 27 43 8 15 18 13 12 21 22 14 9 6 11 7 16 22 17 22 11 12 16 21 28 31 26 25 51 59 57 67 73
Wind_Direction_500mb
5 2 358 354 353 350 342 346 352 354 356 360 2 353 329 349 33 28 37 19 13 12 9 5 335 209 139 154 152 166 83 216 243 183 252 357 4 300 328 281 324 46 60 42 69
4 2 357 357 358 3 2 355 0 5 4 6 5 3 0 359 56 34 26 12 8 354 3 59 113 119 112 126 171 117 150 222 277 98 308 330 341 322 341 315 301 297 271 295 312
4 4 1 357 359 360 360 0 3 6 3 1 359 5 14 8 55 11 12 6 359 348 355 34 111 109 95 137 135 182 201 220 130 81 345 312 304 315 310 312 287 310 306 308 312
357 2 0 -0 357 354 357 355 354 355 352 351 353 6 30 19 142 8 7 3 350 356 360 25 112 84 73 111 5 250 228 359 276 304 309 270 292 291 235 249 296 301 302 300 305
335 351 354 352 350 348 350 353 346 342 338 343 351 10 344 12 56 15 360 359 6 18 37 44 57 28 80 349 339 359 317 306 295 307 305 299 271 277 272 286 310 300 304 299 294
326 336 345 347 349 346 347 348 342 341 333 330 330 32 268 99 36 1 359 15 32 34 39 45 40 34 26 4 33 323 309 293 294 282 292 288 274 322 275 298 312 296 293 299 298
327 335 343 343 347 345 341 339 341 339 335 320 295 247 45 115 10 5 9 14 31 35 47 44 31 68 2 360 337 311 326 320 235 283 3 343 292 222 269 298 311 304 305 304 299
327 332 342 344 344 340 336 336 334 331 328 307 213 351 116 49 10 360 6 4 2 39 57 52 57 75 73 322 9 359 17 343 292 353 59 64 277 288 280 308 298 298 301 303 302
340 333 340 342 340 337 334 330 325 321 315 249 157 153 346 317 348 4 0 9 28 51 50 51 45 27 10 60 25 10 275 299 314 341 349 55 281 262 285 294 290 293 294 302 304
339 335 337 337 334 331 332 332 307 335 239 135 166 354 253 302 324 354 0 6 21 5 67 46 40 66 25 50 234 302 322 306 255 293 353 293 266 280 284 285 284 288 296 297 297
324 331 332 332 329 330 340 334 283 232 270 238 218 222 280 314 286 344 360 19 24 26 19 20 66 183 183 148 138 184 243 257 262 281 319 268 281 288 296 299 282 287 292 298 301
312 322 326 328 325 328 342 356 327 312 253 230 241 232 253 304 291 318 357 65 63 82 3 22 221 204 179 182 29 287 299 286 287 325 342 298 291 271 281 265 278 288 290 298 305
299 310 319 321 319 316 334 337 324 338 282 239 200 214 221 248 254 334 23 66 89 102 44 177 195 158 55 12 329 276 219 272 255 321 258 317 302 324 323 277 289 302 301 305 297
287 293 303 312 307 309 299 299 326 340 49 211 210 226 183 145 276 348 66 104 98 171 231 227 147 128 41 263 154 280 192 263 285 12 267 64 286 306 285 289 295 293 290 306 309
273 279 286 292 281 288 284 292 333 349 352 110 179 172 155 194 151 249 68 112 151 187 90 267 170 193 228 215 167 236 335 281 280 205 42 335 67 272 313 277 275 272 302 273 272
260 260 268 271 264 261 257 251 315 42 255 216 113 233 136 222 219 292 310 96 127 101 21 257 355 181 214 257 232 334 307 18 21 119 16 245 129 272 240 221 231 259 299 263 288
269 248 242 252 252 231 222 190 34 146 352 262 203 180 239 194 264 11 310 268 178 68 359 312 205 161 155 16 42 52 33 327 344 5 226 189 31 244 266 246 251 273 284 259 296
319 254 233 223 225 200 184 64 189 235 219 51 129 112 195 164 216 180 296 279 248 85 102 127 317 176 165 182 179 228 166 154 260 280 274 118 244 246 240 274 283 284 270 282 299
264 241 257 240 210 190 173 167 205 205 160 146 63 163 263 219 177 153 205 211 209 175 164 136 279 133 181 149 133 178 213 171 96 156 358 240 284 285 270 261 282 299 287 297 309
248 211 222 232 208 177 107 222 235 217 128 103 176 167 193 216 144 135 205 202 183 181 153 173 310 225 115 70 252 181 156 78 2 330 288 263 265 248 282 286 292 296 292 301 305
229 175 184 189 187 147 210 222 281 240 185 169 194 161 206 184 179 217 222 268 165 124 118 130 115 287 74 202 180 160 217 144 123 166 201 304 284 215 247 263 294 292 300 308 307
200 149 171 177 120 184 191 196 247 280 238 274 136 156 183 174 180 231 221 220 172 147 162 190 143 232 225 250 214 197 197 156 147 241 230 194 268 254 273 277 308 310 307 306 307
204 135 173 180 170 196 213 210 178 224 224 228 240 219 201 172 218 198 205 272 169 160 163 175 224 336 332 5 27 231 205 198 134 104 208 171 266 212 299 313 307 305 305 308 310
185 146 165 210 222 232 157 202 200 217 238 225 285 149 133 211 224 200 220 213 189 164 153 145 171 189 211 194 134 219 217 204 183 183 262 233 275 286 292 300 303 307 306 309 314
218 220 183 193 237 199 165 173 188 194 201 196 253 222 186 201 175 219 208 121 70 181 147 143 210 211 269 267 250 258 249 238 235 244 232 275 267 275 290 295 298 299 305 314 316
215 180 193 201 202 191 190 212 208 156 160 203 226 207 204 222 192 195 146 184 195 168 157 180 255 97 282 291 279 269 258 243 242 253 253 260 272 274 277 283 288 302 314 314 318
233 229 212 186 176 174 212 219 212 168 220 212 207 204 215 229 199 227 220 264 194 161 181 163 140 84 271 338 328 286 239 213 179 193 203 221 244 266 290 299 307 313 319 318 317
Wind_Speed_850mb
12 14 15 15 12 12 12 11 11 13 13 14 12 10 7 8 14 22 17 26 26 20 13 6 2 5 9 13 11 8 5 6 8 7 7 15 14 5 21 12 33 11 20 20 10
14 16 18 18 17 13 11 9 9 10 11 12 13 11 6 4 7 26 25 21 15 15 9 8 13 15 7 6 7 7 5 14 1 2 4 12 10 23 16 27 17 34 21 27 33
16 19 21 20 19 17 15 12 10 11 12 14 15 12 8 5 4 18 22 21 13 14 10 7 7 8 5 5 2 7 10 5 6 11 7 10 11 16 9 14 6 37 61 51 49
14 17 18 18 16 14 14 13 11 10 10 12 13 7 6 9 3 14 18 18 14 15 11 6 3 4 6 3 3 5 3 4 6 9 12 8 17 17 24 20 39 51 49 50 37
12 15 16 16 15 14 12 11 9 9 10 11 11 6 4 5 6 10 14 12 12 11 21 13 18 9 6 7 10 4 8 18 21 38 23 14 16 15 43 36 19 27 32 36 43
14 16 18 19 19 17 13 10 8 8 10 9 5 2 2 1 5 11 12 8 12 15 20 19 12 8 4 3 2 10 19 33 21 15 17 12 13 9 18 22 22 22 30 40 50
16 18 22 23 22 18 15 13 10 9 8 5 5 2 4 4 6 13 15 9 13 16 16 14 8 6 5 4 8 12 11 15 6 6 4 15 15 13 14 20 49 53 66 72 62
16 17 20 23 23 22 17 13 12 12 6 5 1 1 3 4 5 10 13 11 11 12 17 12 8 5 4 8 5 10 5 9 6 19 4 13 14 21 29 46 57 67 71 73 67
18 17 20 22 22 19 18 16 13 8 4 2 3 0 1 2 8 11 16 13 9 10 12 11 7 9 6 5 8 11 5 6 18 6 10 10 17 25 54 59 59 61 64 62 59
19 19 19 19 18 16 15 13 8 1 1 4 4 1 3 4 10 8 13 10 8 10 7 8 5 6 8 8 2 6 9 9 12 11 11 23 36 33 56 48 54 63 61 55 53
19 20 18 18 17 15 13 8 1 3 3 5 4 4 7 10 4 6 14 5 8 6 6 3 8 5 8 4 6 4 7 13 12 12 15 15 24 42 61 39 39 51 46 51 53
21 22 21 18 15 12 11 6 5 6 5 7 4 5 4 5 4 7 12 5 6 2 7 9 3 7 4 1 3 5 9 13 15 4 13 25 43 40 22 18 26 42 50 50 49
25 23 23 21 16 10 7 5 8 12 6 4 6 6 4 2 3 5 11 4 4 4 2 8 3 8 3 5 7 6 8 7 15 11 9 24 16 12 7 12 33 44 40 32 25
32 26 23 20 16 8 4 5 8 10 8 5 4 2 5 3 4 3 4 4 2 2 2 5 2 4 3 4 7 7 7 8 14 13 4 13 12 14 9 17 17 35 30 32 11
40 31 26 21 13 9 6 4 6 8 8 3 5 5 5 5 2 3 3 4 7 4 7 3 7 5 2 9 9 13 6 13 9 6 7 11 4 17 8 15 19 19 36 18 17
46 38 33 29 24 16 9 3 4 11 12 1 2 2 5 3 3 2 1 3 6 5 1 8 2 7 9 2 5 8 10 7 6 5 6 8 8 13 7 14 9 15 30 27 31
52 47 39 33 20 21 13 4 9 8 7 8 7 6 3 5 2 3 3 3 7 6 6 7 5 3 5 3 5 7 9 8 11 9 10 3 5 25 25 20 18 29 53 40 40
27 47 37 33 27 21 20 7 8 6 13 0 4 4 7 8 3 2 3 6 7 6 5 5 11 12 8 9 7 4 8 9 11 6 11 5 15 14 18 29 48 54 38 39 51
30 40 40 40 28 28 17 3 16 16 12 17 7 4 6 6 7 3 11 8 11 13 13 7 10 3 7 6 13 6 6 5 7 1 5 7 14 24 27 12 18 39 47 62 75
40 50 37 40 36 33 4 13 11 5 12 8 18 10 13 8 5 6 9 8 10 10 6 7 6 2 2 5 5 8 9 5 6 4 12 12 13 28 22 19 17 25 43 61 78
43 24 25 39 45 26 7 12 12 14 15 14 16 10 11 14 14 9 10 4 8 8 10 8 6 6 3 14 16 6 5 4 6 9 9 9 26 18 17 13 30 26 55 79 86
40 7 35 55 12 11 7 13 5 8 14 4 7 7 17 17 14 8 16 11 22 28 15 10 7 7 21 3 1 7 14 12 9 12 8 5 31 7 26 17 30 64 72 83 87
18 9 54 67 10 11 8 9 14 7 7 6 10 11 8 16 4 14 9 3 24 18 16 14 3 6 15 9 5 10 10 11 5 5 18 7 24 7 18 53 71 63 76 83 84
20 6 10 35 24 10 13 11 11 22 13 9 6 7 5 9 5 9 7 7 16 14 14 18 8 13 13 8 6 9 11 12 14 6 12 39 64 72 58 48 55 73 81 74 83
33 12 21 10 18 11 14 15 14 19 29 30 8 23 19 11 7 10 5 6 1 13 14 11 12 5 16 18 12 29 32 33 33 45 21 70 34 62 56 51 60 75 70 74 74
18 15 17 12 11 36 24 22 28 9 20 14 25 21 20 27 18 14 15 10 12 9 14 9 6 4 9 12 13 32 43 40 48 45 37 52 64 57 78 68 50 65 56 59 81
42 50 18 21 11 24 28 43 25 24 33 36 40 18 27 43 8 15 18 13 12 21 22 14 9 6 11 7 16 22 17 22 11 12 16 21 28 31 26 25 51 59 57 67 73
Wind_Direction_850mb
5 2 358 354 353 350 342 346 352 354 356 360 2 353 329 349 33 28 37 19 13 12 9 5 335 209 139 154 152 166 83 216 243 183 252 357 4 300 328 281 324 46 60 42 69
4 2 357 357 358 3 2 355 0 5 4 6 5 3 0 359 56 34 26 12 8 354 3 59 113 119 112 126 171 117 150 222 277 98 308 330 341 322 341 315 301 297 271 295 312
4 4 1 357 359 360 360 0 3 6 3 1 359 5 14 8 55 11 12 6 359 348 355 34 111 109 95 137 135 182 201 220 130 81 345 312 304 315 310 312 287 310 306 308 312
357 2 0 -0 357 354 357 355 354 355 352 351 353 6 30 19 142 8 7 3 350 356 360 25 112 84 73 111 5 250 228 359 276 304 309 270 292 291 235 249 296 301 302 300 305
335 351 354 352 350 348 350 353 346 342 338 343 351 10 344 12 56 15 360 359 6 18 37 44 57 28 80 349 339 359 317 306 295 307 305 299 271 277 272 286 310 300 304 299 294
326 336 345 347 349 346 347 348 342 341 333 330 330 32 268 99 36 1 359 15 32 34 39 45 40 34 26 4 33 323 309 293 294 282 292 288 274 322 275 298 312 296 293 299 298
327 335 343 343 347 345 341 339 341 339 335 320 295 247 45 115 10 5 9 14 31 35 47 44 31 68 2 360 337 311 326 320 235 283 3 343 292 222 269 298 311 304 305 304 299
327 332 342 344 344 340 336 336 334 331 328 307 213 351 116 49 10 360 6 4 2 39 57 52 57 75 73 322 9 359 17 343 292 353 59 64 277 288 280 308 298 298 301 303 302
340 333 340 342 340 337 334 330 325 321 315 249 157 153 346 317 348 4 0 9 28 51 50 51 45 27 10 60 25 10 275 299 314 341 349 55 281 262 285 294 290 293 294 302 304
339 335 337 337 334 331 332 332 307 335 239 135 166 354 253 302 324 354 0 6 21 5 67 46 40 66 25 50 234 302 322 306 255 293 353 293 266 280 284 285 284 288 296 297 297
324 331 332 332 329 330 340 334 283 232 270 238 218 222 280 314 286 344 360 19 24 26 19 20 66 183 183 148 138 184 243 257 262 281 319 268 281 288 296 299 282 287 292 298 301
312 322 326 328 325 328 342 356 327 312 253 230 241 232 253 304 291 318 357 65 63 82 3 22 221 204 179 182 29 287 299 286 287 325 342 298 291 271 281 265 278 288 290 298 305
299 310 319 321 319 316 334 337 324 338 282 239 200 214 221 248 254 334 23 66 89 102 44 177 195 158 55 12 329 276 219 272 255 321 258 317 302 324 323 277 289 302 301 305 297
287 293 303 312 307 309 299 299 326 340 49 211 210 226 183 145 276 348 66 104 98 171 231 227 147 128 41 263 154 280 192 263 285 12 267 64 286 306 285 289 295 293 290 306 309
273 279 286 292 281 288 284 292 333 349 352 110 179 172 155 194 151 249 68 112 151 187 90 267 170 193 228 215 167 236 335 281 280 205 42 335 67 272 313 277 275 272 302 273 272
260 260 268 271 264 261 257 251 315 42 255 216 113 233 136 222 219 292 310 96 127 101 21 257 355 181 214 257 232 334 307 18 21 119 16 245 129 272 240 221 231 259 299 263 288
269 248 242 252 252 231 222 190 34 146 352 262 203 180 239 194 264 11 310 268 178 68 359 312 205 161 155 16 42 52 33 327 344 5 226 189 31 244 266 246 251 273 284 259 296
319 254 233 223 225 200 184 64 189 235 219 51 129 112 195 164 216 180 296 279 248 85 102 127 317 176 165 182 179 228 166 154 260 280 274 118 244 246 240 274 283 284 270 282 299
264 241 257 240 210 190 173 167 205 205 160 146 63 163 263 219 177 153 205 211 209 175 164 136 279 133 181 149 133 178 213 171 96 156 358 240 284 285 270 261 282 299 287 297 309
248 211 222 232 208 177 107 222 235 217 128 103 176 167 193 216 144 135 205 202 183 181 153 173 310 225 115 70 252 181 156 78 2 330 288 263 265 248 282 286 292 296 292 301 305
229 175 184 189 187 147 210 222 281 240 185 169 194 161 206 184 179 217 222 268 165 124 118 130 115 287 74 202 180 160 217 144 123 166 201 304 284 215 247 263 294 292 300 308 307
200 149 171 177 120 184 191 196 247 280 238 274 136 156 183 174 180 231 221 220 172 147 162 190 143 232 225 250 214 197 197 156 147 241 230 194 268 254 273 277 308 310 307 306 307
204 135 173 180 170 196 213 210 178 224 224 228 240 219 201 172 218 198 205 272 169 160 163 175 224 336 332 5 27 231 205 198 134 104 208 171 266 212 299 313 307 305 305 308 310
185 146 165 210 222 232 157 202 200 217 238 225 285 149 133 211 224 200 220 213 189 164 153 145 171 189 211 194 134 219 217 204 183 183 262 233 275 286 292 300 303 307 306 309 314
218 220 183 193 237 199 165 173 188 194 201 196 253 222 186 201 175 219 208 121 70 181 147 143 210 211 269 267 250 258 249 238 235 244 232 275 267 275 290 295 298 299 305 314 316
215 180 193 201 202 191 190 212 208 156 160 203 226 207 204 222 192 195 146 184 195 168 157 180 255 97 282 291 279 269 258 243 242 253 253 260 272 274 277 283 288 302 314 314 318
233 229 212 186 176 174 212 219 212 168 220 212 207 204 215 229 199 227 220 264 194 161 181 163 140 84 271 338 328 286 239 213 179 193 203 221 244 266 290 299 307 313 319 318 317